KB0BS-13 Weather Reports


Display with metric or nautical units.
time (UTC)temp
F
wind
direction
speed
MPH
gust
MPH
rain 1hr
in
rain 24hr
in
rain mn
in
humidity
%
barometer
mb
20260508004055 38 260 1.0 2.0 0.00 0.00 0.00 90 1011.7
20260508003552 38 247 4.0 4.0 0.00 0.00 0.00 90 1011.7
20260508003050 38 280 2.0 3.0 0.00 0.00 0.00 91 1011.7
20260508002546 38 299 2.0 3.0 0.00 0.00 0.00 91 1011.6
20260508002043 38 303 3.0 3.0 0.00 0.00 0.00 91 1011.8
20260508001538 38 312 3.0 4.0 0.00 0.00 0.00 90 1011.9
20260508001035 38 291 2.0 3.0 0.00 0.00 0.00 90 1011.8
20260508000531 38 293 3.0 4.0 0.00 0.00 0.00 90 1011.7
20260508000029 39 314 6.0 7.0 0.00 0.00 0.00 90 1011.5
20260507235525 39 315 4.0 7.0 0.00 0.00 0.00 90 1011.7
20260507235023 39 297 7.0 8.0 0.00 0.00 0.00 89 1011.4
20260507234519 39 306 3.0 6.0 0.00 0.00 0.00 90 1011.6
20260507234015 39 300 3.0 7.0 0.00 0.00 0.00 90 1011.6
20260507233512 39 306 3.0 4.0 0.00 0.00 0.00 90 1011.7
20260507233011 40 299 1.0 6.0 0.00 0.00 0.00 89 1011.4
20260507232507 40 308 2.0 8.0 0.00 0.00 0.00 88 1011.5
20260507232004 40 320 3.0 8.0 0.00 0.00 0.00 88 1011.6
20260507231500 40 320 2.0 4.0 0.00 0.00 0.00 87 1011.6
20260507230958 41 340 4.0 7.0 0.00 0.00 0.00 86 1011.4
20260507230454 41 308 3.0 3.0 0.00 0.00 0.00 85 1011.6
20260507225949 41 336 3.0 4.0 0.00 0.00 0.00 84 1011.6
20260507225447 41 325 4.0 4.0 0.00 0.00 0.00 83 1011.5
20260507224943 41 338 3.0 4.0 0.00 0.00 0.00 82 1011.5
20260507224439 41 308 2.0 4.0 0.00 0.00 0.00 83 1011.5
20260507223936 41 300 4.0 6.0 0.00 0.00 0.00 84 1011.8
20260507223431 40 294 3.0 3.0 0.00 0.00 0.00 86 1011.7
20260507222928 41 325 4.0 4.0 0.00 0.00 0.00 85 1011.7
20260507222425 40 304 2.0 3.0 0.00 0.00 0.00 86 1011.6
20260507221922 40 303 5.0 6.0 0.00 0.00 0.00 86 1011.7
20260507221418 40 323 4.0 4.0 0.00 0.00 0.00 86 1011.8
20260507220914 40 311 4.0 6.0 0.00 0.00 0.00 86 1011.7
20260507220412 40 297 4.0 4.0 0.00 0.00 0.00 87 1011.7
20260507215908 40 297 4.0 6.0 0.00 0.00 0.00 86 1011.6
20260507215405 40 279 7.0 8.0 0.00 0.00 0.00 85 1011.8
20260507214902 40 294 5.0 7.0 0.00 0.00 0.00 87 1011.7
20260507214400 40 312 4.0 7.0 0.00 0.00 0.00 87 1011.7
20260507213855 41 302 4.0 9.0 0.00 0.00 0.00 85 1011.6
20260507213352 41 290 6.0 10.0 0.00 0.00 0.00 85 1011.8
20260507212849 41 275 7.0 11.0 0.00 0.00 0.00 85 1011.7
20260507212345 41 316 5.0 9.0 0.00 0.00 0.00 85 1011.7
20260507211842 41 299 4.0 9.0 0.00 0.00 0.00 84 1011.7
20260507211339 41 303 5.0 9.0 0.00 0.00 0.00 84 1011.7
20260507210835 40 312 4.0 8.0 0.00 0.00 0.00 84 1011.4
20260507210332 40 338 3.0 10.0 0.00 0.00 0.00 85 1011.6
20260507205829 40 305 8.0 11.0 0.00 0.00 0.00 84 1011.5
20260507205326 40 303 9.0 14.0 0.00 0.00 0.00 84 1011.6
20260507204822 39 334 7.0 16.0 0.00 0.00 0.00 84 1011.4
20260507204319 39 334 7.0 16.0 0.00 0.00 0.00 84 1011.4
20260507203817 44 332 7.0 15.0 0.00 0.00 0.00 78 1011.5
20260507203315 44 271 7.0 10.0 0.00 0.00 0.00 65 1011.1
20260507202811 44 235 12.0 16.0 0.00 0.00 0.00 63 1011.0
20260507202307 44 271 11.0 13.0 0.00 0.00 0.00 61 1011.0
20260507201802 44 235 11.0 14.0 0.00 0.00 0.00 63 1011.1
20260507201258 45 242 10.0 13.0 0.00 0.00 0.00 62 1011.0
20260507200755 45 236 6.0 11.0 0.00 0.00 0.00 63 1011.1
20260507200251 45 222 11.0 14.0 0.00 0.00 0.00 61 1011.0
20260507195747 45 239 8.0 9.0 0.00 0.00 0.00 61 1011.1
20260507195245 45 215 11.0 14.0 0.00 0.00 0.00 60 1010.8
20260507194742 45 228 10.0 11.0 0.00 0.00 0.00 61 1011.0
20260507194238 44 218 6.0 9.0 0.00 0.00 0.00 63 1011.3
20260507193735 44 246 11.0 14.0 0.00 0.00 0.00 65 1011.4
20260507193232 43 248 10.0 14.0 0.00 0.00 0.00 64 1011.5
20260507192728 43 253 11.0 14.0 0.00 0.00 0.00 67 1011.4
20260507192225 43 251 9.0 14.0 0.00 0.00 0.00 64 1011.4
20260507191721 44 236 11.0 14.0 0.00 0.00 0.00 62 1011.3
20260507191218 44 235 10.0 11.0 0.00 0.00 0.00 63 1011.4
20260507190715 44 225 7.0 11.0 0.00 0.00 0.00 64 1011.3
20260507190213 44 235 5.0 10.0 0.00 0.00 0.00 63 1011.3
20260507185711 45 206 5.0 10.0 0.00 0.00 0.00 66 1011.4
20260507185208 44 224 4.0 6.0 0.00 0.00 0.00 66 1011.4
20260507184706 44 216 4.0 6.0 0.00 0.00 0.00 74 1011.5
20260507184204 43 254 4.0 7.0 0.00 0.00 0.00 73 1011.5
20260507183659 43 269 2.0 8.0 0.00 0.00 0.00 73 1011.5
20260507183156 43 224 6.0 9.0 0.00 0.00 0.00 73 1011.6
20260507182654 43 242 5.0 9.0 0.00 0.00 0.00 75 1011.6
20260507182149 42 269 5.0 8.0 0.00 0.00 0.00 79 1011.7
20260507181645 42 282 5.0 7.0 0.00 0.00 0.00 81 1011.9
20260507181142 41 256 6.0 9.0 0.00 0.00 0.00 83 1011.9
20260507180638 40 265 5.0 8.0 0.00 0.00 0.00 88 1012.0
20260507180136 39 307 6.0 9.0 0.00 0.00 0.00 90 1012.2
20260507175631 38 254 5.0 10.0 0.00 0.00 0.00 92 1012.4
20260507175129 38 272 5.0 13.0 0.00 0.00 0.00 91 1012.4
20260507174626 39 283 13.0 17.0 0.00 0.00 0.00 88 1012.3
20260507174124 41 315 12.0 18.0 0.00 0.00 0.00 83 1012.1
20260507173621 43 263 13.0 15.0 0.00 0.00 0.00 63 1011.9
20260507173118 44 240 8.0 17.0 0.00 0.00 0.00 62 1011.9
20260507172614 45 219 10.0 14.0 0.00 0.00 0.00 61 1012.0
20260507172111 44 210 10.0 11.0 0.00 0.00 0.00 61 1011.7
20260507171606 44 209 9.0 14.0 0.00 0.00 0.00 63 1011.9
20260507171103 44 216 5.0 13.0 0.00 0.00 0.00 64 1011.9
20260507170600 44 227 11.0 13.0 0.00 0.00 0.00 63 1012.0
20260507170057 44 221 6.0 9.0 0.00 0.00 0.00 62 1012.1
20260507165553 43 236 8.0 14.0 0.00 0.00 0.00 64 1012.0
20260507165049 43 220 10.0 14.0 0.00 0.00 0.00 64 1012.2
20260507164546 43 226 8.0 10.0 0.00 0.00 0.00 68 1012.4
20260507164043 42 198 4.0 9.0 0.00 0.00 0.00 71 1012.4
20260507163540 42 211 7.0 13.0 0.00 0.00 0.00 69 1012.3
20260507163038 43 190 7.0 10.0 0.00 0.00 0.00 68 1012.4
20260507162538 43 192 4.0 9.0 0.00 0.00 0.00 67 1012.3
20260507162036 43 246 6.0 7.0 0.00 0.00 0.00 64 1012.6
20260507161532 43 252 8.0 11.0 0.00 0.00 0.00 63 1012.6
20260507161029 43 234 2.0 10.0 0.00 0.00 0.00 64 1012.7
20260507160525 43 232 11.0 13.0 0.00 0.00 0.00 66 1012.7
20260507160021 43 249 8.0 10.0 0.00 0.00 0.00 64 1012.9
20260507155516 43 261 6.0 8.0 0.00 0.00 0.00 64 1012.7
20260507155014 43 243 9.0 10.0 0.00 0.00 0.00 64 1012.7
20260507154511 42 248 5.0 11.0 0.00 0.00 0.00 68 1012.9
20260507154009 42 267 9.0 11.0 0.00 0.00 0.00 67 1013.0
20260507153504 42 277 9.0 10.0 0.00 0.00 0.00 67 1012.9
20260507153000 42 277 8.0 9.0 0.00 0.00 0.00 67 1012.9
20260507152456 42 262 7.0 7.0 0.00 0.00 0.00 67 1012.9
20260507151953 42 224 7.0 9.0 0.00 0.00 0.00 67 1013.0
20260507151449 42 248 7.0 9.0 0.00 0.00 0.00 68 1012.8
20260507150946 42 267 11.0 11.0 0.00 0.00 0.00 68 1012.9
20260507150443 42 248 8.0 9.0 0.00 0.00 0.00 66 1012.9
20260507145939 41 228 8.0 10.0 0.00 0.00 0.00 67 1012.9
20260507145435 41 239 6.0 9.0 0.00 0.00 0.00 70 1012.9
20260507144932 41 25 7.0 9.0 0.00 0.00 0.00 68 1012.8
20260507144429 41 248 8.0 10.0 0.00 0.00 0.00 70 1012.8
20260507143926 41 240 5.0 11.0 0.00 0.00 0.00 68 1013.1
20260507143424 41 260 6.0 7.0 0.00 0.00 0.00 69 1013.0
20260507142920 41 266 8.0 13.0 0.00 0.00 0.00 70 1013.2
20260507142416 41 254 5.0 9.0 0.00 0.00 0.00 72 1012.9
20260507141914 41 218 9.0 11.0 0.00 0.00 0.00 71 1013.0
20260507141409 41 230 5.0 11.0 0.00 0.00 0.00 73 1013.1
20260507140906 41 268 5.0 8.0 0.00 0.00 0.00 73 1013.2
20260507140403 41 227 9.0 14.0 0.00 0.00 0.00 71 1013.1
20260507135901 40 211 5.0 8.0 0.00 0.00 0.00 74 1013.1
20260507135357 40 261 7.0 9.0 0.00 0.00 0.00 73 1013.0
20260507134855 40 249 10.0 10.0 0.00 0.00 0.00 73 1013.0
20260507134351 40 239 5.0 8.0 0.00 0.00 0.00 75 1012.9
20260507133847 40 221 6.0 9.0 0.00 0.00 0.00 75 1013.0
20260507133342 40 232 6.0 10.0 0.00 0.00 0.00 75 1013.1
20260507132842 40 241 5.0 7.0 0.00 0.00 0.00 76 1012.9
20260507132337 39 238 5.0 9.0 0.00 0.00 0.00 77 1012.9
20260507131835 39 223 3.0 8.0 0.00 0.00 0.00 79 1012.9
20260507131331 39 212 3.0 9.0 0.00 0.00 0.00 79 1012.9
20260507130828 39 190 6.0 8.0 0.00 0.00 0.00 79 1013.0
20260507130325 39 216 4.0 8.0 0.00 0.00 0.00 80 1012.8
20260507125824 38 202 4.0 6.0 0.00 0.00 0.00 79 1012.8
20260507125321 38 239 4.0 7.0 0.00 0.00 0.00 82 1012.7
20260507124818 38 226 5.0 8.0 0.00 0.00 0.00 81 1012.8
20260507124314 37 236 4.0 8.0 0.00 0.00 0.00 81 1012.8
20260507123813 37 216 6.0 8.0 0.00 0.00 0.00 82 1013.0
20260507123310 37 227 5.0 8.0 0.00 0.00 0.00 83 1013.0
20260507122806 37 207 4.0 6.0 0.00 0.00 0.00 83 1012.9
20260507122306 37 209 4.0 7.0 0.00 0.00 0.00 84 1012.9
20260507121758 36 203 7.0 10.0 0.00 0.00 0.00 82 1012.7
20260507121254 36 218 5.0 8.0 0.00 0.00 0.00 83 1012.8
20260507120750 36 113 8.0 10.0 0.00 0.00 0.00 82 1012.7
20260507120247 36 113 6.0 9.0 0.00 0.00 0.00 82 1012.7
20260507115743 35 295 4.0 6.0 0.00 0.00 0.00 83 1012.7
20260507115239 34 264 3.0 4.0 0.00 0.00 0.00 86 1012.7
20260507114735 32 217 2.0 3.0 0.00 0.00 0.00 88 1012.5
20260507114232 31 234 0.0 0.0 0.00 0.00 0.00 91 1012.6
20260507113730 30 263 0.0 0.0 0.00 0.00 0.00 93 1012.7
20260507113226 30 252 0.0 0.0 0.00 0.00 0.00 94 1012.5
20260507112724 29 270 0.0 0.0 0.00 0.00 0.00 93 1012.5
20260507112221 29 236 0.0 0.0 0.00 0.00 0.00 94 1012.5
20260507111718 29 236 0.0 0.0 0.00 0.00 0.00 95 1012.5
20260507111215 29 98 0.0 0.0 0.00 0.00 0.00 97 1012.5
20260507110711 29 226 0.0 0.0 0.00 0.00 0.00 98 1012.4
20260507110208 29 226 0.0 0.0 0.00 0.00 0.00 98 1012.7
20260507105705 29 226 0.0 0.0 0.00 0.00 0.00 98 1012.5
20260507105200 29 226 0.0 0.0 0.00 0.00 0.00 98 1012.4
20260507104658 29 226 0.0 0.0 0.00 0.00 0.00 98 1012.6
20260507104154 29 226 0.0 0.0 0.00 0.00 0.00 98 1012.5
20260507103650 29 225 0.0 0.0 0.00 0.00 0.00 97 1012.6
20260507103147 29 225 0.0 0.0 0.00 0.00 0.00 97 1012.6
20260507102644 29 226 0.0 0.0 0.00 0.00 0.00 97 1012.3
20260507102140 29 69 0.0 0.0 0.00 0.00 0.00 97 1012.4
20260507101636 29 305 0.0 0.0 0.00 0.00 0.00 96 1012.5
20260507101132 29 305 0.0 0.0 0.00 0.00 0.00 96 1012.7
20260507100629 29 305 0.0 0.0 0.00 0.00 0.00 97 1012.3
20260507100128 30 305 0.0 0.0 0.00 0.00 0.00 97 1012.4
20260507095625 30 305 0.0 0.0 0.00 0.00 0.00 97 1012.5
20260507095121 30 305 0.0 0.0 0.00 0.00 0.00 96 1012.4
20260507094618 30 235 0.0 0.0 0.00 0.00 0.00 95 1012.6
20260507094115 30 235 0.0 0.0 0.00 0.00 0.00 95 1012.5
20260507093612 30 235 0.0 0.0 0.00 0.00 0.00 96 1012.6
20260507093111 30 234 0.0 0.0 0.00 0.00 0.00 95 1012.7
20260507092607 30 234 0.0 0.0 0.00 0.00 0.00 91 1012.9
20260507092103 31 234 0.0 0.0 0.00 0.00 0.00 92 1012.8
20260507091600 31 234 0.0 0.0 0.00 0.00 0.00 89 1012.8
20260507091056 31 234 0.0 0.0 0.00 0.00 0.00 89 1012.8
20260507090552 31 234 0.0 0.0 0.00 0.00 0.00 89 1012.9
20260507090049 31 234 0.0 0.0 0.00 0.00 0.00 90 1012.8
20260507085546 31 234 0.0 0.0 0.00 0.00 0.00 90 1012.8
20260507085043 31 234 0.0 0.0 0.00 0.00 0.00 90 1012.8
20260507084539 31 234 0.0 0.0 0.00 0.00 0.00 90 1012.9
20260507084037 31 234 0.0 0.0 0.00 0.00 0.00 91 1013.0
20260507083533 31 234 0.0 0.0 0.00 0.00 0.00 90 1012.9
20260507083030 32 234 0.0 0.0 0.00 0.00 0.00 90 1012.9
20260507082526 31 234 0.0 0.0 0.00 0.00 0.00 90 1013.0
20260507082022 31 234 0.0 0.0 0.00 0.00 0.00 90 1013.1
20260507081519 31 234 0.0 0.0 0.00 0.00 0.00 90 1013.1
20260507081016 31 234 0.0 0.0 0.00 0.00 0.00 90 1013.2
20260507080511 31 235 0.0 0.0 0.00 0.00 0.00 91 1013.0
20260507080008 31 234 0.0 0.0 0.00 0.00 0.00 91 1013.0
20260507075503 31 234 0.0 0.0 0.00 0.00 0.00 91 1013.2
20260507075000 31 235 0.0 0.0 0.00 0.00 0.00 91 1013.1
20260507074457 31 234 0.0 0.0 0.00 0.00 0.00 91 1013.3
20260507073955 31 240 0.0 0.0 0.00 0.00 0.00 91 1013.2
20260507073451 31 230 0.0 0.0 0.00 0.00 0.00 91 1013.3
20260507072948 31 232 0.0 0.0 0.00 0.00 0.00 92 1013.5
20260507072445 31 229 0.0 0.0 0.00 0.00 0.00 92 1013.3
20260507071943 31 237 0.0 0.0 0.00 0.00 0.00 93 1013.4
20260507071440 30 233 0.0 0.0 0.00 0.00 0.00 94 1013.5
20260507070936 30 272 0.0 0.0 0.00 0.00 0.00 95 1013.4
20260507070434 29 273 0.0 0.0 0.00 0.00 0.00 96 1013.3
20260507065930 29 273 0.0 0.0 0.00 0.00 0.00 96 1013.4
20260507065427 29 273 0.0 0.0 0.00 0.00 0.00 95 1013.4
20260507064925 29 273 0.0 0.0 0.00 0.00 0.00 96 1013.7
20260507064423 29 273 0.0 0.0 0.00 0.00 0.00 96 1013.5
20260507063920 29 273 0.0 0.0 0.00 0.00 0.00 98 1013.6
20260507063417 29 273 0.0 0.0 0.00 0.00 0.00 98 1013.7
20260507062914 29 273 0.0 0.0 0.00 0.00 0.00 98 1013.7
20260507062411 29 273 0.0 0.0 0.00 0.00 0.00 98 1013.8
20260507061908 29 273 0.0 0.0 0.00 0.00 0.00 98 1013.8
20260507061407 29 273 0.0 0.0 0.00 0.00 0.00 99 1013.6
20260507060905 29 273 0.0 0.0 0.00 0.00 0.00 99 1013.9
20260507060401 29 273 0.0 0.0 0.00 0.00 0.00 99 1014.0
20260507055858 29 273 0.0 0.0 0.00 0.00 0.00 99 1013.7
20260507055353 29 273 0.0 0.0 0.00 0.00 0.00 99 1013.8
20260507054850 29 273 0.0 0.0 0.00 0.00 0.00 99 1013.9
20260507054346 29 273 0.0 0.0 0.00 0.00 0.00 99 1013.9
20260507053843 29 273 0.0 0.0 0.00 0.00 0.00 99 1013.9
20260507053341 30 273 0.0 0.0 0.00 0.00 0.00 98 1014.0
20260507052839 30 273 0.0 0.0 0.00 0.00 0.00 99 1014.1
20260507052336 30 273 0.0 0.0 0.00 0.00 0.00 99 1014.1
20260507051834 30 273 0.0 0.0 0.00 0.00 0.00 99 1013.9
20260507051331 30 273 0.0 0.0 0.00 0.00 0.00 99 1014.2
20260507050828 30 273 0.0 0.0 0.00 0.00 0.00 98 1014.1
20260507050324 30 273 0.0 0.0 0.00 0.00 0.00 98 1014.1
20260507045821 30 273 0.0 0.0 0.00 0.00 0.00 97 1014.1
20260507045318 31 273 0.0 0.0 0.00 0.00 0.00 97 1014.3
20260507044815 31 273 0.0 0.0 0.00 0.00 0.00 97 1014.1
20260507044311 31 273 0.0 0.0 0.00 0.00 0.00 95 1014.4
20260507043807 32 273 0.0 0.0 0.00 0.00 0.00 93 1014.3
20260507043304 31 273 0.0 0.0 0.00 0.00 0.00 92 1014.4
20260507042800 31 273 0.0 0.0 0.00 0.00 0.00 95 1014.4
20260507042256 31 273 0.0 0.0 0.00 0.00 0.00 96 1014.3
20260507041753 31 273 0.0 0.0 0.00 0.00 0.00 96 1014.2
20260507041249 31 273 0.0 0.0 0.00 0.00 0.00 95 1014.2
20260507040747 31 273 0.0 0.0 0.00 0.00 0.00 94 1014.4
20260507040243 31 273 0.0 0.0 0.00 0.00 0.00 93 1014.2
20260507035739 31 273 0.0 0.0 0.00 0.00 0.00 92 1014.3
20260507035234 31 273 0.0 0.0 0.00 0.00 0.00 92 1014.3
20260507034732 31 273 0.0 1.0 0.00 0.00 0.00 92 1014.3
20260507034229 31 273 0.0 0.0 0.00 0.00 0.00 91 1014.5
20260507033727 32 273 0.0 1.0 0.00 0.00 0.00 90 1014.1
20260507033224 32 273 1.0 1.0 0.00 0.00 0.00 90 1014.4
20260507032722 31 273 1.0 2.0 0.00 0.00 0.00 92 1014.3
20260507032218 32 273 1.0 2.0 0.00 0.00 0.00 90 1014.5
20260507031715 32 273 2.0 2.0 0.00 0.00 0.00 90 1014.6
20260507031211 33 273 1.0 1.0 0.00 0.00 0.00 91 1014.4
20260507030708 34 273 1.0 1.0 0.00 0.00 0.00 83 1014.6
20260507030206 34 273 0.0 0.0 0.00 0.00 0.00 85 1014.4
20260507025702 34 273 0.0 0.0 0.00 0.00 0.00 87 1014.5
20260507025159 35 273 0.0 0.0 0.00 0.00 0.00 86 1014.4
20260507024658 35 273 0.0 0.0 0.00 0.00 0.00 85 1014.3
20260507024154 35 273 0.0 0.0 0.00 0.00 0.00 82 1014.4
20260507023650 35 273 0.0 0.0 0.00 0.00 0.00 82 1014.4
20260507023148 35 274 0.0 0.0 0.00 0.00 0.00 80 1014.5
20260507022644 35 274 0.0 0.0 0.00 0.00 0.00 83 1014.4
20260507022140 35 319 0.0 0.0 0.00 0.00 0.00 84 1014.2
20260507021637 35 320 0.0 0.0 0.00 0.00 0.00 85 1014.3
20260507021132 35 320 0.0 0.0 0.00 0.00 0.00 83 1014.1
20260507020631 35 320 0.0 0.0 0.00 0.00 0.00 86 1014.1
20260507020126 35 320 0.0 0.0 0.00 0.00 0.00 81 1014.4
20260507015625 35 320 0.0 0.0 0.00 0.00 0.00 86 1014.2
20260507015122 35 320 0.0 0.0 0.00 0.00 0.00 82 1014.2
20260507014619 35 321 0.0 0.0 0.00 0.00 0.00 81 1014.3
20260507014114 35 323 0.0 0.0 0.00 0.00 0.00 79 1014.2
20260507013611 36 342 1.0 1.0 0.00 0.00 0.00 78 1014.1
20260507013108 35 340 1.0 2.0 0.00 0.00 0.00 78 1014.2
20260507012606 36 14 1.0 2.0 0.00 0.00 0.00 81 1014.1
20260507012101 36 16 2.0 2.0 0.00 0.00 0.00 79 1014.2
20260507011600 36 359 1.0 2.0 0.00 0.00 0.00 79 1014.2
20260507011055 36 17 1.0 2.0 0.00 0.00 0.00 77 1014.1
20260507010550 36 356 2.0 2.0 0.00 0.00 0.00 75 1014.2
20260507010046 37 10 2.0 3.0 0.00 0.00 0.00 75 1014.2
20260507005544 37 21 3.0 4.0 0.00 0.00 0.00 75 1014.1
20260507005040 37 326 0.0 2.0 0.00 0.00 0.00 76 1014.2
20260507004537 37 320 0.0 2.0 0.00 0.00 0.00 75 1014.0